Date,TemperatureHighF,TemperatureAvgF,TemperatureLowF,DewpointHighF,DewpointAvgF,DewpointLowF,HumidityHigh,HumidityAvg,HumidityLow,PressureMaxIn,PressureMinIn,WindSpeedMaxMPH,WindSpeedAvgMPH,GustSpeedMaxMPH,PrecipitationSumIn
2014-1-10,77.7,71.5,65.8,67.8,64.9,61.9,87,80,70,29.97,29.89,5,1,11,0.06
2014-1-11,81.9,69.5,62.2,69.1,64.0,59.3,94,83,62,29.99,29.90,8,1,14,0.12
2014-1-12,84.4,73.3,65.1,70.4,66.1,62.4,92,79,57,30.01,29.91,8,2,15,0.41
2014-1-13,82.0,72.3,65.7,72.0,66.7,63.6,94,83,63,30.00,29.86,8,1,13,0.27
2014-1-14,85.1,73.7,66.7,70.7,65.0,61.2,93,76,54,29.94,29.83,8,1,13,0.07
2014-1-15,82.8,72.0,62.4,68.7,63.5,58.7,90,76,53,29.92,29.82,8,2,14,0.01
2014-1-16,85.8,73.7,64.9,67.8,64.0,60.0,89,74,47,30.02,29.88,8,2,14,0.02
2014-1-17,85.8,73.1,64.6,67.4,64.7,58.7,89,76,53,30.05,29.97,4,1,8,17.15
2014-1-18,86.4,72.5,63.3,68.0,63.9,59.9,90,76,48,30.07,29.93,7,2,11,0.00
2014-1-19,72.5,65.5,61.3,66.1,60.8,57.3,91,85,75,29.98,29.93,4,1,7,0.00
2014-1-20,85.1,71.6,61.9,66.1,62.5,58.1,92,75,46,29.97,29.85,9,2,14,0.00
2014-1-21,79.7,71.8,63.5,68.3,64.4,59.6,92,78,64,29.98,29.79,14,4,22,17.36
2014-1-22,77.4,70.0,63.3,66.6,58.9,50.4,90,69,46,29.95,29.75,17,5,27,18.04
2014-1-23,79.0,66.0,56.8,56.9,53.2,50.1,79,65,45,30.00,29.84,8,2,14,0.00
2014-1-24,79.5,67.0,56.7,60.3,55.8,52.1,86,69,48,29.99,29.79,8,1,13,18.04
2014-1-25,81.5,69.9,59.9,61.6,58.0,54.6,85,67,47,29.89,29.77,11,2,19,0.00
2014-1-26,75.4,70.3,66.0,68.6,63.8,60.3,87,80,68,29.94,29.83,11,3,17,18.21
2014-1-27,75.2,68.0,64.9,65.2,61.7,58.8,91,81,65,30.05,29.91,8,3,14,0.04
2014-1-28,73.8,68.2,64.2,60.8,58.6,56.6,84,72,59,30.14,30.00,10,4,17,18.25
2014-1-29,80.2,70.7,65.7,66.7,63.7,59.7,90,79,63,30.10,29.97,8,2,14,0.36
2014-1-30,86.0,73.0,63.1,66.6,62.7,59.8,92,72,47,30.02,29.85,7,1,10,0.00
2014-1-31,82.8,71.4,63.1,69.0,64.7,59.3,92,80,59,29.93,29.81,9,2,14,0.02
2014-2-1,80.1,73.2,69.1,69.5,67.5,65.1,92,83,63,29.92,29.80,10,3,15,0.47
2014-2-2,81.7,72.1,66.0,67.2,63.5,58.3,92,75,60,30.02,29.88,9,2,11,0.02
2014-2-3,79.0,69.0,65.1,66.7,62.3,58.6,91,80,60,30.02,29.92,5,2,9,19.45
2014-2-4,71.4,68.0,65.8,66.9,64.9,63.8,95,90,84,30.02,29.87,6,1,9,0.25
2014-2-5,80.1,73.1,66.0,71.9,67.7,63.2,94,84,69,29.98,29.85,13,3,21,0.05
2014-2-6,82.2,74.4,69.8,72.3,68.9,65.6,94,84,66,30.03,29.92,7,2,13,0.02
2014-2-7,77.2,71.4,67.3,69.7,66.6,63.9,92,85,75,30.01,29.85,8,3,13,0.05
2014-2-8,77.2,68.0,65.8,68.1,64.0,62.8,90,87,73,30.00,29.93,8,4,13,0.00
2014-2-9,75.6,71.8,67.5,66.7,64.8,63.0,86,79,73,30.00,29.92,2,0,3,0.00
2014-2-10,84.6,74.6,66.9,70.8,66.3,62.6,91,77,56,30.06,29.91,11,2,17,0.02
2014-2-11,90.3,73.5,63.3,67.8,63.4,59.4,89,74,45,30.06,29.94,8,2,14,0.00